ONEWEB-0443, 51637

Orbit data source: Space-Track

ONEWEB-0443, 51637 is a payload satellite owned by One Web (NAA) (UK) in LEO that was launched on Thu, 10 Feb 2022 UTC via a SOYUZ-ST-B launch vehicle from the French Guiana (FRGUI). Payload-class satellites include a variety of spacecraft equipped with specific instruments for various scientific and technological missions. These include communications satellites like Starlink; space stations such as the ISS; scientific satellites like the Hubble; Earth observation satellites from companies like Planet Labs, Umbra, and HawkEye 360; GPS; miniature CubeSats for education and research; and military/defense satellites.

Loading next visibility...
Identifier
51637, 2022-012R
Orbit
LEO
Country
Flag of UKUK
Related business
Manufacturer
One Web
Mission
Operational Commercial Communications
Bus & Motor
ARROW, Unknown motor
Mass
148 kg wet, ~140 kg dry
Launch date (UTC)
2022-02-10 (4 years ago)
Launch vehicle
SOYUZ-ST-B
Launch site
French Guiana (FRGUI)
Object type
Payload
Rocket body
Debris
Shape & HBR
Trap Box + 2 Pan, 6.7 m
Radar Cross Section
3.464 m², Large (>1 m²)

Expand to show TLE details & history
Last TLE update: 3 days ago

TLE from 3 days ago
0 ONEWEB-0443
1 51637U 22012R   26170.57804399 -.00000013  00000-0 -66444-4 0  9994
2 51637  87.9132   5.4036 0001707  77.8037 282.3286 13.17649633214033
Epoch: 2026-06-19T13:52Z
TLE epoch observation values (Epoch: 2026-06-19T13:52:23.000Z)
Latitude
-0°
Longitude
-110.49725°
Altitude
1,196.333 km
Speed
7.256 km/s
True Right ascension
00h 21m 36s
True Declination
0° 00' 00"
Sunlit
Object was in daylight at epoch
Visualization orbit readout
Latitude
Unknown
Longitude
Unknown
Altitude
Unknown
Speed
Unknown
Apparent Right ascension
Unknown
Apparent Declination
Unknown
Sunlit
N/A
Visualization observer readout
Local Sidereal Time
21:26:09
Azimuth
Unknown
Elevation
Unknown
Doppler factor
Unknown
Orbital elements
Apogee altitude
1,192.112 km
Perigee altitude
1,189.528 km
Semi-major axis
7,568.957 km
Eccentricity
0.00017
Inclination
87.9132°
RAAN
5.4036°
Arg. of periapsis
77.8037°
True anomaly
282.30949°
Mean anomaly
282.3286°
Eccentric anomaly
282.31904°
Mean motion
3.29601 °/min
Orbital period
109.22 mins
BSTAR
-0.000066444
Loading maneuver chart data...
Computing Atmospheric mass density...
Loading historical data...
Loading historical data...
Loading historical data...
Loading historical data...
Loading historical data...
Loading historical data...
Loading historical data...

Documentation

Showing up to 5 results
|